Showing default

ASTROCAST-0403, 55111

Orbit data source: Space-Track

ASTROCAST-0403, 55111 is a payload satellite owned by Astrocast (CH) in SSO that was launched on Tue, 03 Jan 2023 UTC via an FALCON 9 launch vehicle from the Air Force Eastern Test Range (AFETR). Payload-class satellites include a variety of spacecraft equipped with specific instruments for various scientific and technological missions. These include communications satellites like Starlink; space stations such as the ISS; scientific satellites like the Hubble; Earth observation satellites from companies like Planet Labs, Umbra, and HawkEye 360; GPS; miniature CubeSats for education and research; and military/defense satellites.

Loading next visibility...
Identifier
55111, 2023-001DG
Orbit
SSO
Country
Flag of UnknownUnknown / SWTZ
Related business
Manufacturer
Astrocast
Mission
Operational Commercial Communications
Bus & Motor
CUBESAT 3U, Unknown motor
Mass
4.5 kg wet, 4.5 kg dry
Launch date (UTC)
2023-01-03 (3 years ago)
Launch vehicle
FALCON 9
Launch site
Air Force Eastern Test Range (AFETR)
Object type
Payload
Rocket body
Debris
Shape & HBR
Box, 0.1 m
Radar Cross Section
0.035 m², Medium (>0.1 m² and < 1m²)

Expand to show TLE details & history
Last TLE update: 10 hours ago

TLE from 10 hours ago
0 ASTROCAST-0403
1 55111U 23001DG  25345.21317009  .00018874  00000-0  74573-3 0  9998
2 55111  97.5704  71.5324 0004313 279.7836  80.2915 15.25543368115859
Epoch: 2025-12-11T05:06Z
TLE epoch observation values (Epoch: 2025-12-11T05:06:57.895Z)
Latitude
Longitude
-85.3812°
Altitude
491.749 km
Speed
7.619 km/s
True Right ascension
04h 46m 07s
True Declination
0° 00' 00"
Sunlit
Object was in full shadow at epoch
Visualization orbit readout
Latitude
Unknown
Longitude
Unknown
Altitude
Unknown
Speed
Unknown
Apparent Right ascension
Unknown
Apparent Declination
Unknown
Sunlit
N/A
Visualization observer readout
Local Sidereal Time
13:01:30
Azimuth
Unknown
Elevation
Unknown
Doppler factor
Unknown
Orbital elements
Apogee altitude
489.08 km
Perigee altitude
483.159 km
Semi-major axis
6,864.257 km
Eccentricity
0.00043
Inclination
97.5704°
RAAN
71.5324°
Arg. of periapsis
279.7836°
True anomaly
80.34022°
Mean anomaly
80.2915°
Eccentric anomaly
80.31586°
Mean motion
3.81639 °/min
Orbital period
94.33 mins
BSTAR
0.00074573
Loading maneuver chart data...
Computing Atmospheric mass density...
Loading historical data...
Loading historical data...
Loading historical data...
Loading historical data...
Loading historical data...
Loading historical data...
Loading historical data...

Documentation

Showing up to 5 results
|